Branson, MO

2:04 PM CDT on May 29, 2017 (GMT -0500)
Branson

Weather History for KBBG - July, 2013

Change the Weather History Date:

Wednesday, July 3, 2013

  Actual Average (KHRO) Record (KHRO)
Temperature  
Mean Temperature 70 °F -  
Max Temperature 82 °F 88 °F 104 °F (1909)
Min Temperature 57 °F 68 °F 48 °F (1924)
Cooling Degree Days 4    
Growing Degree Days 20 (Base 50)    
Moisture  
Dew Point 51 °F    
Average Humidity 56    
Maximum Humidity 77    
Minimum Humidity 30    
Precipitation  
Precipitation 0.00 in - - ()
Sea Level Pressure  
Sea Level Pressure 30.10 in    
Wind  
Wind Speed 2 mph (SE)    
Max Wind Speed 8 mph    
Max Gust Speed -    
Visibility 10 miles    
Events Thunderstorm    
Averages and records for this station are not official NWS values.
T = Trace of Precipitation, MM = Missing Value Source: NWS Daily Summary

Daily Weather History Graph

Daily Weather History Graph

Search for Another Location

Airport or City:

Trip Planner

Search our weather history database for the weather conditions in past years. The results will help you decide how hot, cold, wet, or windy it might be!

Date:

Astronomy

Jul. 03, 2013 Rise Set
Actual Time 5:59 AM CDT 8:34 PM CDT
Civil Twilight 5:28 AM CDT 9:05 PM CDT
Nautical Twilight 4:51 AM CDT 9:42 PM CDT
Astronomical Twilight 4:09 AM CDT 10:24 PM CDT
Moon 2:34 AM CDT (7/3) 4:48 PM CDT (7/3)
Length of Visible Light 15h 36m
Length of Day
14h 35m
Waning Crescent, 18% of the Moon is Illuminated
Jul 3
Waning Crescent
Jul 8
New
Jul 15
First Quarter
Jul 22
Full
Jul 29
Last Quarter

Hourly Weather History & Observations

Time (CDT) Temp. Dew Point Humidity Pressure Visibility Wind Dir Wind Speed Gust Speed Precip Events Conditions
12:15 AM 62.6 °F 51.8 °F 68% 30.11 in 10.0 mi Calm Calm - N/A   Clear
12:35 AM 62.6 °F 51.8 °F 68% 30.11 in 10.0 mi Calm Calm - N/A   Clear
12:55 AM 60.8 °F 51.8 °F 72% 30.10 in 10.0 mi Calm Calm - N/A   Clear
1:15 AM 64.4 °F 51.8 °F 64% 30.10 in 10.0 mi South 4.6 mph - N/A   Clear
1:55 AM 62.6 °F 50.0 °F 63% 30.10 in 10.0 mi Calm Calm - N/A   Clear
2:15 AM 62.6 °F 50.0 °F 63% 30.10 in 10.0 mi Calm Calm - N/A   Clear
2:35 AM 60.8 °F 50.0 °F 68% 30.09 in 10.0 mi Calm Calm - N/A   Clear
2:55 AM 60.8 °F 50.0 °F 68% 30.10 in 10.0 mi Calm Calm - N/A   Clear
3:15 AM 60.8 °F 50.0 °F 68% 30.10 in 10.0 mi Calm Calm - N/A   Clear
3:35 AM 59.0 °F 50.0 °F 72% 30.10 in 10.0 mi Calm Calm - N/A   Clear
3:55 AM 57.2 °F 50.0 °F 77% 30.10 in 10.0 mi Calm Calm - N/A   Clear
4:15 AM 57.2 °F 50.0 °F 77% 30.10 in 10.0 mi Calm Calm - N/A   Clear
4:35 AM 57.2 °F 50.0 °F 77% 30.10 in 10.0 mi Calm Calm - N/A   Clear
4:55 AM 59.0 °F 50.0 °F 72% 30.10 in 10.0 mi SSW 3.5 mph - N/A   Clear
5:15 AM 60.8 °F 50.0 °F 68% 30.10 in 10.0 mi SSW 3.5 mph - N/A   Clear
5:35 AM 60.8 °F 50.0 °F 68% 30.11 in 10.0 mi SW 3.5 mph - N/A   Clear
5:55 AM 57.2 °F 50.0 °F 77% 30.11 in 10.0 mi Calm Calm - N/A   Clear
6:15 AM 57.2 °F 50.0 °F 77% 30.11 in 10.0 mi Calm Calm - N/A   Clear
6:35 AM 57.2 °F 50.0 °F 77% 30.11 in 9.0 mi Calm Calm - N/A   Clear
6:45 AM 57.2 °F 50.0 °F 77% 30.11 in 10.0 mi Calm Calm - N/A   Partly Cloudy
7:45 AM 64.4 °F 51.8 °F 64% 30.13 in 10.0 mi Calm Calm - N/A   Partly Cloudy
8:58 AM 69.8 °F 53.6 °F 56% 30.15 in 10.0 mi Calm Calm - N/A   Partly Cloudy
9:45 AM 73.4 °F 51.8 °F 47% 30.15 in 10.0 mi Calm Calm - N/A   Partly Cloudy
10:45 AM 77.0 °F 48.2 °F 36% 30.14 in 10.0 mi Calm Calm - N/A   Partly Cloudy
11:45 AM 77.0 °F 48.2 °F 36% 30.13 in 10.0 mi North 6.9 mph - N/A   Scattered Clouds
12:45 PM 78.8 °F 48.2 °F 34% 30.12 in 10.0 mi North 6.9 mph - N/A   Scattered Clouds
1:45 PM 80.6 °F 48.2 °F 32% 30.10 in 10.0 mi Calm Calm - N/A   Mostly Cloudy
2:45 PM 82.4 °F 48.2 °F 30% 30.09 in 10.0 mi Calm Calm - N/A   Mostly Cloudy
3:45 PM 82.4 °F 48.2 °F 30% 30.07 in 10.0 mi NNW 6.9 mph - N/A   Mostly Cloudy
4:45 PM 80.6 °F 48.2 °F 32% 30.06 in 10.0 mi East 3.5 mph - N/A   Mostly Cloudy
5:45 PM 80.6 °F 50.0 °F 34% 30.05 in 10.0 mi ESE 6.9 mph - N/A   Mostly Cloudy
6:45 PM 80.6 °F 50.0 °F 34% 30.05 in 10.0 mi ESE 8.1 mph - N/A   Scattered Clouds
7:45 PM 77.0 °F 53.6 °F 44% 30.06 in 10.0 mi SE 6.9 mph - N/A   Mostly Cloudy
8:45 PM 73.4 °F 53.6 °F 50% 30.05 in 10.0 mi SE 4.6 mph - N/A   Scattered Clouds
9:15 PM 71.6 °F 53.6 °F 53% 30.05 in 10.0 mi SSE 4.6 mph - N/A   Mostly Cloudy
9:35 PM 73.4 °F 51.8 °F 47% 30.06 in 10.0 mi SE 4.6 mph - N/A   Overcast
9:55 PM 73.4 °F 51.8 °F 47% 30.07 in 10.0 mi SSE 5.8 mph - N/A Thunderstorm Overcast
10:15 PM 73.4 °F 51.8 °F 47% 30.08 in 10.0 mi SSE 6.9 mph - N/A   Overcast
10:35 PM 71.6 °F 51.8 °F 50% 30.08 in 10.0 mi SE 6.9 mph - N/A   Overcast
10:55 PM 71.6 °F 51.8 °F 50% 30.08 in 10.0 mi SSE 5.8 mph - N/A   Overcast
11:15 PM 71.6 °F 50.0 °F 46% 30.09 in 10.0 mi SE 8.1 mph - N/A   Overcast
11:35 PM 71.6 °F 51.8 °F 50% 30.09 in 10.0 mi SE 8.1 mph - N/A   Overcast
11:55 PM 71.6 °F 51.8 °F 50% 30.09 in 10.0 mi SE 5.8 mph - N/A   Overcast